FW2761 Weather Reports


time (UTC)temp
C
wind
direction
speed
KPH
gust
KPH
rain 1hr
cm
rain 24hr
cm
rain mn
cm
humidity
%
barometer
mb
20260506124538 10 320 0.0 0.0 0.00 0.00 0.00 52 1019.7
20260506123038 10 320 0.0 0.0 0.00 0.00 0.00 52 1019.8
20260506121537 9 321 0.0 0.0 0.00 0.00 0.00 52 1019.6
20260506120040 9 321 0.0 0.0 0.00 0.00 0.00 51 1019.6
20260506114541 9 321 0.0 0.0 0.00 0.00 0.00 50 1019.5
20260506113031 10 321 0.0 0.0 0.00 0.00 0.00 49 1019.4
20260506111532 10 321 0.0 0.0 0.00 0.00 0.00 48 1019.2
20260506110034 10 321 0.0 0.0 0.00 0.00 0.00 48 1019.2
20260506104528 10 321 0.0 0.0 0.00 0.00 0.00 48 1019.1
20260506103026 10 321 0.0 0.0 0.00 0.00 0.00 48 1019.1
20260506101544 10 321 0.0 0.0 0.00 0.00 0.00 48 1019.0
20260506100024 10 321 0.0 0.0 0.00 0.00 0.00 46 1018.9
20260506094522 10 321 0.0 0.0 0.00 0.00 0.00 45 1018.8
20260506093020 10 321 0.0 0.0 0.00 0.00 0.00 45 1018.8
20260506091521 10 321 0.0 0.0 0.00 0.00 0.00 44 1018.7
20260506090016 11 321 0.0 0.0 0.00 0.00 0.00 44 1019.0
20260506084519 11 321 0.0 4.8 0.00 0.00 0.00 44 1019.1
20260506083013 11 321 0.0 4.8 0.00 0.00 0.00 44 1019.1
20260506081512 11 323 0.0 0.0 0.00 0.00 0.00 43 1019.1
20260506073006 11 324 0.0 0.0 0.00 0.00 0.00 42 1018.7
20260506071503 11 324 0.0 0.0 0.00 0.00 0.00 42 1018.5
20260506061558 12 324 0.0 0.0 0.00 0.00 0.00 41 1017.8
20260506044559 13 324 0.0 0.0 0.00 0.00 0.00 40 1017.3
20260506043050 13 324 0.0 0.0 0.00 0.00 0.00 40 1017.2
20260506041603 13 324 0.0 0.0 0.00 0.00 0.00 40 1016.9
20260506040048 14 324 0.0 0.0 0.00 0.00 0.00 41 1016.7
20260506034547 14 324 0.0 0.0 0.00 0.00 0.00 41 1016.6
20260506033046 15 324 0.0 0.0 0.00 0.00 0.00 43 1016.2
20260506031547 15 324 0.0 3.2 0.00 0.00 0.00 43 1016.1
20260506030044 16 324 0.0 4.8 0.00 0.00 0.00 43 1015.8
20260506024544 17 325 1.6 3.2 0.00 0.00 0.00 43 1015.8
20260506023043 17 327 3.2 8.0 0.00 0.00 0.00 42 1015.6
20260506021544 18 311 1.6 6.4 0.00 0.00 0.00 40 1015.5
20260506020041 19 327 1.6 8.0 0.00 0.00 0.00 38 1015.4
20260506014548 19 325 3.2 8.0 0.00 0.00 0.00 38 1015.2
20260506013040 20 309 3.2 6.4 0.00 0.00 0.00 37 1015.2
20260506011541 20 270 3.2 11.3 0.00 0.00 0.00 37 1015.3
20260506010038 20 259 3.2 9.7 0.00 0.00 0.00 37 1015.3
20260506004542 18 298 4.8 14.5 0.00 0.00 0.00 38 1015.4
20260506003036 19 320 3.2 9.7 0.00 0.00 0.00 37 1015.3
20260506001542 20 275 1.6 12.9 0.00 0.00 0.00 35 1015.3
20260506000040 20 317 1.6 6.4 0.00 0.00 0.00 33 1015.3
20260505234531 20 234 6.4 14.5 0.00 0.00 0.00 34 1015.3
20260505233029 20 343 4.8 9.7 0.00 0.00 0.00 34 1015.3
20260505231529 20 305 3.2 12.9 0.00 0.00 0.00 34 1015.4
20260505230033 20 348 4.8 14.5 0.00 0.00 0.00 36 1015.4
20260505224536 20 318 6.4 12.9 0.00 0.00 0.00 34 1015.5
20260505223036 20 215 4.8 12.9 0.00 0.00 0.00 35 1015.6
20260505221523 19 307 6.4 16.1 0.00 0.00 0.00 34 1015.6
20260505220034 18 311 3.2 14.5 0.00 0.00 0.00 36 1015.7
20260505214536 18 306 8.0 14.5 0.00 0.00 0.00 36 1016.0
20260505213033 18 246 3.2 11.3 0.00 0.00 0.00 35 1016.0
20260505211519 19 242 6.4 16.1 0.00 0.00 0.00 34 1016.0
20260505210017 19 257 6.4 11.3 0.00 0.00 0.00 35 1016.0
20260505204524 18 255 6.4 12.9 0.00 0.00 0.00 35 1016.0
20260505203015 18 339 4.8 16.1 0.00 0.00 0.00 34 1015.9
20260505201517 18 338 6.4 16.1 0.00 0.00 0.00 34 1016.0
20260505200011 18 271 3.2 11.3 0.00 0.00 0.00 34 1016.0
20260505194510 18 327 4.8 9.7 0.00 0.00 0.00 34 1016.1
20260505193023 18 339 4.8 12.9 0.00 0.00 0.00 33 1016.3
20260505191503 17 286 4.8 17.7 0.00 0.00 0.00 32 1016.3
20260505190118 17 275 6.4 14.5 0.00 0.00 0.00 32 1016.4
20260505184608 16 269 0.0 14.5 0.00 0.00 0.00 32 1016.5
20260505183055 16 294 8.0 14.5 0.00 0.00 0.00 32 1016.5
20260505181551 16 279 4.8 16.1 0.00 0.00 0.00 33 1016.4
20260505180053 15 350 8.0 16.1 0.00 0.00 0.00 33 1016.4
20260505174549 15 280 4.8 14.5 0.00 0.00 0.00 34 1016.2
20260505173047 16 205 4.8 14.5 0.00 0.00 0.00 31 1016.0
20260505171545 15 303 4.8 11.3 0.00 0.00 0.00 33 1016.0
20260505170041 14 270 4.8 11.3 0.00 0.00 0.00 32 1016.0
20260505164539 13 229 4.8 8.0 0.00 0.00 0.00 34 1015.8
20260505163033 13 267 3.2 9.7 0.00 0.00 0.00 35 1015.9
20260505161531 12 252 1.6 8.0 0.00 0.00 0.00 36 1015.7
20260505153030 12 261 4.8 11.3 0.00 0.00 0.00 38 1015.7
20260505151525 12 317 4.8 8.0 0.00 0.00 0.00 39 1015.6